| time (UTC) | temp F | wind direction | speed knots | gust knots | rain 1hr in | rain 24hr in | rain mn in | humidity % | barometer mb |
| 20260505112553 | 33 | 0 | 0.0 | 1.7 | 0.00 | 0.00 | 0.00 | 80 | 1012.7 |
| 20260505112052 | 33 | 0 | 0.0 | 1.7 | 0.00 | 0.00 | 0.00 | 80 | 1012.6 |
| 20260505111553 | 34 | 0 | 0.0 | 0.0 | 0.00 | 0.00 | 0.00 | 79 | 1012.8 |
| 20260505111052 | 34 | 0 | 0.0 | 1.7 | 0.00 | 0.00 | 0.00 | 78 | 1012.8 |
| 20260505110555 | 35 | 0 | 0.0 | 2.6 | 0.00 | 0.00 | 0.00 | 77 | 1012.7 |
| 20260505110111 | 35 | 0 | 0.9 | 2.6 | 0.00 | 0.00 | 0.00 | 76 | 1012.7 |
| 20260505102055 | 38 | 0 | 0.0 | 0.0 | 0.00 | 0.00 | 0.00 | 73 | 1012.6 |
| 20260505101603 | 38 | 0 | 0.0 | 1.7 | 0.00 | 0.00 | 0.00 | 73 | 1012.6 |
| 20260505101052 | 37 | 0 | 0.0 | 1.7 | 0.00 | 0.00 | 0.00 | 74 | 1012.5 |
| 20260505100552 | 37 | 330 | 0.0 | 0.9 | 0.00 | 0.00 | 0.00 | 74 | 1012.5 |
| 20260505100100 | 37 | 0 | 0.0 | 0.9 | 0.00 | 0.00 | 0.00 | 74 | 1012.5 |
| 20260505095552 | 39 | 0 | 0.0 | 0.9 | 0.00 | 0.00 | 0.00 | 71 | 1012.5 |
| 20260505095053 | 39 | 0 | 0.0 | 0.0 | 0.00 | 0.00 | 0.00 | 70 | 1012.6 |
| 20260505094554 | 39 | 0 | 0.0 | 0.0 | 0.00 | 0.00 | 0.00 | 71 | 1012.4 |
| 20260505094052 | 39 | 0 | 0.0 | 0.9 | 0.00 | 0.00 | 0.00 | 71 | 1012.3 |
| 20260505093552 | 39 | 0 | 0.0 | 0.9 | 0.00 | 0.00 | 0.00 | 69 | 1012.4 |
| 20260505093052 | 39 | 0 | 0.0 | 0.9 | 0.00 | 0.00 | 0.00 | 67 | 1012.4 |
| 20260505092554 | 40 | 0 | 0.0 | 2.6 | 0.00 | 0.00 | 0.00 | 66 | 1012.3 |
| 20260505092053 | 41 | 0 | 0.0 | 2.6 | 0.00 | 0.00 | 0.00 | 65 | 1012.5 |
| 20260505091556 | 41 | 331 | 0.0 | 4.3 | 0.00 | 0.00 | 0.00 | 66 | 1012.5 |
| 20260505091051 | 41 | 0 | 0.9 | 4.3 | 0.00 | 0.00 | 0.00 | 65 | 1012.6 |
| 20260505090551 | 41 | 0 | 0.0 | 1.7 | 0.00 | 0.00 | 0.00 | 66 | 1012.5 |
| 20260505090058 | 41 | 0 | 0.9 | 1.7 | 0.00 | 0.00 | 0.00 | 66 | 1012.4 |
| 20260505085554 | 41 | 0 | 0.0 | 1.7 | 0.00 | 0.00 | 0.00 | 66 | 1012.6 |
| 20260505085055 | 41 | 0 | 0.0 | 2.6 | 0.00 | 0.00 | 0.00 | 66 | 1012.6 |
| 20260505084601 | 40 | 275 | 0.9 | 2.6 | 0.00 | 0.00 | 0.00 | 66 | 1012.7 |
| 20260505084056 | 40 | 0 | 0.9 | 2.6 | 0.00 | 0.00 | 0.00 | 67 | 1012.7 |
| 20260505083555 | 41 | 0 | 0.0 | 0.0 | 0.00 | 0.00 | 0.00 | 67 | 1012.6 |
| 20260505083109 | 41 | 0 | 0.0 | 0.9 | 0.00 | 0.00 | 0.00 | 66 | 1012.7 |
| 20260505082601 | 41 | 0 | 0.0 | 1.7 | 0.00 | 0.00 | 0.00 | 66 | 1012.6 |
| 20260505082054 | 42 | 0 | 0.0 | 1.7 | 0.00 | 0.00 | 0.00 | 64 | 1012.6 |
| 20260505081552 | 42 | 0 | 0.0 | 3.5 | 0.00 | 0.00 | 0.00 | 63 | 1012.6 |
| 20260505081054 | 42 | 39 | 0.9 | 3.5 | 0.00 | 0.00 | 0.00 | 62 | 1012.6 |
| 20260505080553 | 42 | 0 | 0.0 | 1.7 | 0.00 | 0.00 | 0.00 | 64 | 1012.5 |
| 20260505075553 | 42 | 0 | 0.0 | 2.6 | 0.00 | 0.00 | 0.00 | 64 | 1012.6 |
| 20260505075057 | 43 | 0 | 0.0 | 2.6 | 0.00 | 0.00 | 0.00 | 63 | 1012.6 |
| 20260505074555 | 42 | 0 | 0.0 | 2.6 | 0.00 | 0.00 | 0.00 | 63 | 1012.4 |
| 20260505074053 | 42 | 0 | 0.0 | 1.7 | 0.00 | 0.00 | 0.00 | 65 | 1012.5 |
| 20260505073552 | 42 | 0 | 0.0 | 1.7 | 0.00 | 0.00 | 0.00 | 64 | 1012.6 |
| 20260505073102 | 42 | 0 | 0.0 | 2.6 | 0.00 | 0.00 | 0.00 | 66 | 1012.7 |
| 20260505072554 | 42 | 0 | 0.0 | 2.6 | 0.00 | 0.00 | 0.00 | 67 | 1012.7 |
| 20260505072054 | 42 | 37 | 0.0 | 1.7 | 0.00 | 0.00 | 0.00 | 66 | 1012.7 |
| 20260505071557 | 42 | 0 | 0.0 | 0.9 | 0.00 | 0.00 | 0.00 | 67 | 1012.7 |
| 20260505071054 | 41 | 0 | 0.0 | 1.7 | 0.00 | 0.00 | 0.00 | 69 | 1012.8 |
| 20260505070551 | 41 | 0 | 0.0 | 1.7 | 0.00 | 0.00 | 0.00 | 66 | 1012.7 |
| 20260505070101 | 42 | 353 | 0.0 | 1.7 | 0.00 | 0.00 | 0.00 | 66 | 1012.7 |
| 20260505065554 | 41 | 0 | 0.0 | 1.7 | 0.00 | 0.00 | 0.00 | 68 | 1012.7 |
| 20260505065054 | 40 | 0 | 0.0 | 1.7 | 0.00 | 0.00 | 0.00 | 67 | 1012.7 |
| 20260505064639 | 41 | 0 | 0.0 | 0.0 | 0.00 | 0.00 | 0.00 | 65 | 1012.8 |
| 20260505064054 | 42 | 0 | 0.0 | 0.0 | 0.00 | 0.00 | 0.00 | 64 | 1012.9 |
| 20260505063554 | 42 | 0 | 0.0 | 0.9 | 0.00 | 0.00 | 0.00 | 65 | 1012.8 |
| 20260505063104 | 42 | 0 | 0.0 | 0.9 | 0.00 | 0.00 | 0.00 | 63 | 1012.9 |
| 20260505062555 | 42 | 0 | 0.0 | 0.9 | 0.00 | 0.00 | 0.00 | 64 | 1012.7 |
| 20260505062053 | 42 | 0 | 0.0 | 1.7 | 0.00 | 0.00 | 0.00 | 64 | 1012.6 |
| 20260505061601 | 43 | 0 | 0.0 | 1.7 | 0.00 | 0.00 | 0.00 | 63 | 1012.7 |
| 20260505061055 | 43 | 0 | 0.0 | 0.9 | 0.00 | 0.00 | 0.00 | 61 | 1012.8 |
| 20260505060557 | 43 | 0 | 0.0 | 0.9 | 0.00 | 0.00 | 0.00 | 62 | 1012.8 |
| 20260505060101 | 43 | 0 | 0.0 | 0.9 | 0.00 | 0.00 | 0.00 | 60 | 1012.9 |
| 20260505055554 | 44 | 0 | 0.0 | 2.6 | 0.00 | 0.00 | 0.00 | 60 | 1012.7 |
| 20260505055054 | 44 | 0 | 0.0 | 2.6 | 0.00 | 0.00 | 0.00 | 59 | 1012.7 |
| 20260505054556 | 45 | 78 | 0.0 | 1.7 | 0.00 | 0.00 | 0.00 | 59 | 1012.8 |
| 20260505054054 | 45 | 0 | 0.0 | 1.7 | 0.00 | 0.00 | 0.00 | 58 | 1012.7 |
| 20260505053552 | 45 | 307 | 0.0 | 1.7 | 0.00 | 0.00 | 0.00 | 57 | 1012.7 |
| 20260505053059 | 46 | 0 | 0.0 | 1.7 | 0.00 | 0.00 | 0.00 | 56 | 1012.6 |
| 20260505052555 | 46 | 0 | 0.0 | 1.7 | 0.00 | 0.00 | 0.00 | 56 | 1012.6 |
| 20260505052052 | 46 | 0 | 0.0 | 1.7 | 0.00 | 0.00 | 0.00 | 55 | 1012.7 |
| 20260505051554 | 47 | 295 | 0.0 | 1.7 | 0.00 | 0.00 | 0.00 | 53 | 1012.6 |
| 20260505051053 | 47 | 0 | 0.0 | 1.7 | 0.00 | 0.00 | 0.00 | 54 | 1012.6 |
| 20260505050553 | 47 | 303 | 0.0 | 2.6 | 0.00 | 0.00 | 0.00 | 54 | 1012.4 |
| 20260505050104 | 47 | 0 | 0.9 | 2.6 | 0.00 | 0.00 | 0.00 | 53 | 1012.5 |
| 20260505041603 | 49 | 0 | 0.9 | 4.3 | 0.00 | 0.00 | 0.00 | 50 | 1012.1 |
| 20260505041051 | 49 | 303 | 0.9 | 7.8 | 0.00 | 0.00 | 0.00 | 50 | 1012.0 |
| 20260505040551 | 49 | 54 | 1.7 | 7.8 | 0.00 | 0.00 | 0.00 | 48 | 1011.9 |
| 20260505040103 | 49 | 26 | 0.9 | 7.8 | 0.00 | 0.00 | 0.00 | 48 | 1011.9 |
| 20260505035557 | 49 | 33 | 1.7 | 8.7 | 0.00 | 0.00 | 0.00 | 47 | 1011.8 |
| 20260505035052 | 50 | 332 | 0.9 | 8.7 | 0.00 | 0.00 | 0.00 | 47 | 1011.7 |
| 20260505034610 | 50 | 28 | 0.9 | 5.2 | 0.00 | 0.00 | 0.00 | 47 | 1011.7 |
| 20260505034052 | 50 | 2 | 1.7 | 4.3 | 0.00 | 0.00 | 0.00 | 46 | 1011.7 |
| 20260505033554 | 50 | 0 | 0.0 | 5.2 | 0.00 | 0.00 | 0.00 | 46 | 1011.7 |
| 20260505033055 | 50 | 5 | 0.0 | 5.2 | 0.00 | 0.00 | 0.00 | 45 | 1011.7 |
| 20260505032554 | 50 | 0 | 0.9 | 5.2 | 0.00 | 0.00 | 0.00 | 45 | 1011.6 |
| 20260505032053 | 50 | 278 | 0.9 | 3.5 | 0.00 | 0.00 | 0.00 | 44 | 1011.5 |
| 20260505031552 | 50 | 313 | 0.9 | 4.3 | 0.00 | 0.00 | 0.00 | 44 | 1011.5 |
| 20260505031054 | 50 | 0 | 0.9 | 4.3 | 0.00 | 0.00 | 0.00 | 43 | 1011.4 |
| 20260505030556 | 50 | 315 | 0.9 | 4.3 | 0.00 | 0.00 | 0.00 | 43 | 1011.2 |
| 20260505030114 | 50 | 317 | 0.9 | 4.3 | 0.00 | 0.00 | 0.00 | 43 | 1011.2 |
| 20260505025554 | 51 | 36 | 0.9 | 4.3 | 0.00 | 0.00 | 0.00 | 43 | 1011.1 |
| 20260505025053 | 51 | 299 | 0.0 | 5.2 | 0.00 | 0.00 | 0.00 | 43 | 1011.0 |
| 20260505024609 | 51 | 103 | 0.9 | 5.2 | 0.00 | 0.00 | 0.00 | 43 | 1010.8 |
| 20260505024054 | 51 | 14 | 0.9 | 5.2 | 0.00 | 0.00 | 0.00 | 42 | 1010.8 |
| 20260505023552 | 51 | 105 | 0.9 | 5.2 | 0.00 | 0.00 | 0.00 | 42 | 1010.8 |
| 20260505023054 | 52 | 0 | 0.9 | 5.2 | 0.00 | 0.00 | 0.00 | 41 | 1010.7 |
| 20260505022552 | 52 | 30 | 1.7 | 5.2 | 0.00 | 0.00 | 0.00 | 41 | 1010.7 |
| 20260505022051 | 52 | 71 | 1.7 | 5.2 | 0.00 | 0.00 | 0.00 | 40 | 1010.6 |
| 20260505021553 | 53 | 11 | 1.7 | 7.0 | 0.00 | 0.00 | 0.00 | 40 | 1010.5 |
| 20260505021053 | 53 | 23 | 1.7 | 7.8 | 0.00 | 0.00 | 0.00 | 39 | 1010.5 |
| 20260505020554 | 53 | 27 | 0.9 | 7.8 | 0.00 | 0.00 | 0.00 | 40 | 1010.3 |
| 20260505020105 | 53 | 0 | 1.7 | 7.8 | 0.00 | 0.00 | 0.00 | 41 | 1010.4 |
| 20260505015554 | 53 | 106 | 1.7 | 7.0 | 0.00 | 0.00 | 0.00 | 43 | 1010.3 |
| 20260505015057 | 53 | 0 | 0.9 | 4.3 | 0.00 | 0.00 | 0.00 | 42 | 1010.2 |
| 20260505014553 | 54 | 18 | 0.0 | 4.3 | 0.00 | 0.00 | 0.00 | 43 | 1010.1 |
| 20260505014054 | 54 | 330 | 0.9 | 3.5 | 0.00 | 0.00 | 0.00 | 42 | 1010.1 |
| 20260505013554 | 54 | 0 | 0.0 | 3.5 | 0.00 | 0.00 | 0.00 | 42 | 1010.1 |
| 20260505013053 | 54 | 65 | 0.0 | 4.3 | 0.00 | 0.00 | 0.00 | 41 | 1010.0 |
| 20260505012556 | 55 | 0 | 0.9 | 7.8 | 0.00 | 0.00 | 0.00 | 42 | 1010.0 |
| 20260505012055 | 55 | 18 | 1.7 | 7.8 | 0.00 | 0.00 | 0.00 | 41 | 1010.1 |
| 20260505011559 | 55 | 308 | 0.9 | 4.3 | 0.00 | 0.00 | 0.00 | 41 | 1010.1 |
| 20260505011053 | 56 | 118 | 0.9 | 5.2 | 0.00 | 0.00 | 0.00 | 40 | 1010.1 |
| 20260505010553 | 56 | 298 | 0.9 | 5.2 | 0.00 | 0.00 | 0.00 | 38 | 1010.0 |
| 20260505010109 | 56 | 7 | 1.7 | 4.3 | 0.00 | 0.00 | 0.00 | 40 | 1010.0 |
| 20260505005555 | 57 | 28 | 0.0 | 1.7 | 0.00 | 0.00 | 0.00 | 45 | 1010.1 |
| 20260505005052 | 56 | 353 | 0.0 | 0.9 | 0.00 | 0.00 | 0.00 | 44 | 1010.0 |
| 20260505004605 | 56 | 0 | 0.0 | 2.6 | 0.00 | 0.00 | 0.00 | 43 | 1009.9 |
| 20260505004054 | 56 | 0 | 0.0 | 2.6 | 0.00 | 0.00 | 0.00 | 42 | 1010.0 |
| 20260505003555 | 56 | 0 | 0.0 | 1.7 | 0.00 | 0.00 | 0.00 | 42 | 1010.0 |
| 20260505003058 | 57 | 0 | 0.0 | 3.5 | 0.00 | 0.00 | 0.00 | 40 | 1010.1 |
| 20260505002555 | 57 | 131 | 1.7 | 3.5 | 0.00 | 0.00 | 0.00 | 39 | 1010.0 |
| 20260505002054 | 57 | 103 | 0.0 | 2.6 | 0.00 | 0.00 | 0.00 | 41 | 1010.1 |
| 20260505001553 | 58 | 66 | 0.9 | 2.6 | 0.00 | 0.00 | 0.00 | 41 | 1010.1 |
| 20260505001053 | 58 | 31 | 0.0 | 2.6 | 0.00 | 0.00 | 0.00 | 41 | 1010.0 |
| 20260505000551 | 58 | 353 | 0.9 | 4.3 | 0.00 | 0.00 | 0.00 | 40 | 1010.0 |
| 20260505000107 | 58 | 288 | 0.9 | 4.3 | 0.00 | 0.00 | 0.00 | 40 | 1009.9 |
| 20260504235554 | 58 | 0 | 0.0 | 6.1 | 0.00 | 0.00 | 0.00 | 40 | 1010.0 |
| 20260504235054 | 58 | 234 | 0.9 | 6.1 | 0.00 | 0.00 | 0.00 | 41 | 1010.1 |
| 20260504234553 | 57 | 353 | 0.9 | 6.1 | 0.00 | 0.00 | 0.00 | 40 | 1010.2 |
| 20260504234054 | 57 | 54 | 1.7 | 9.6 | 0.00 | 0.00 | 0.00 | 41 | 1010.3 |
| 20260504233552 | 58 | 279 | 0.9 | 9.6 | 0.00 | 0.00 | 0.00 | 39 | 1010.5 |
| 20260504233103 | 59 | 138 | 1.7 | 6.1 | 0.00 | 0.00 | 0.00 | 37 | 1010.5 |
| 20260504232555 | 60 | 122 | 1.7 | 6.1 | 0.00 | 0.00 | 0.00 | 36 | 1010.3 |
| 20260504232054 | 61 | 296 | 0.9 | 5.2 | 0.00 | 0.00 | 0.00 | 33 | 1010.4 |
| 20260504231620 | 61 | 0 | 0.9 | 2.6 | 0.00 | 0.00 | 0.00 | 35 | 1010.1 |
| 20260504231054 | 61 | 288 | 0.9 | 2.6 | 0.00 | 0.00 | 0.00 | 33 | 1010.0 |
| 20260504230555 | 61 | 292 | 0.0 | 5.2 | 0.00 | 0.00 | 0.00 | 33 | 1009.9 |
| 20260504230054 | 60 | 216 | 0.0 | 5.2 | 0.00 | 0.00 | 0.00 | 35 | 1009.9 |
| 20260504225556 | 61 | 324 | 0.9 | 7.0 | 0.00 | 0.00 | 0.00 | 33 | 1010.0 |
| 20260504225056 | 61 | 297 | 0.9 | 7.0 | 0.00 | 0.00 | 0.00 | 32 | 1010.2 |
| 20260504224553 | 61 | 353 | 1.7 | 7.0 | 0.00 | 0.00 | 0.00 | 34 | 1010.1 |
| 20260504224050 | 61 | 7 | 0.9 | 8.7 | 0.00 | 0.00 | 0.00 | 33 | 1009.9 |
| 20260504223554 | 61 | 360 | 0.0 | 8.7 | 0.00 | 0.00 | 0.00 | 30 | 1009.9 |
| 20260504223053 | 62 | 30 | 5.2 | 8.7 | 0.00 | 0.00 | 0.00 | 31 | 1010.1 |
| 20260504222551 | 62 | 13 | 1.7 | 7.0 | 0.00 | 0.00 | 0.00 | 31 | 1009.8 |
| 20260504222051 | 63 | 12 | 2.6 | 6.1 | 0.00 | 0.00 | 0.00 | 29 | 1009.7 |
| 20260504221631 | 65 | 9 | 1.7 | 7.0 | 0.00 | 0.00 | 0.00 | 28 | 1009.8 |
| 20260504221051 | 66 | 37 | 1.7 | 7.0 | 0.00 | 0.00 | 0.00 | 28 | 1009.7 |
| 20260504220551 | 66 | 260 | 1.7 | 7.0 | 0.00 | 0.00 | 0.00 | 28 | 1009.7 |
| 20260504220055 | 67 | 301 | 1.7 | 7.0 | 0.00 | 0.00 | 0.00 | 25 | 1009.7 |
| 20260504215552 | 67 | 282 | 1.7 | 7.0 | 0.00 | 0.00 | 0.00 | 27 | 1009.7 |
| 20260504215051 | 67 | 253 | 1.7 | 6.1 | 0.00 | 0.00 | 0.00 | 27 | 1009.9 |
| 20260504214555 | 69 | 12 | 2.6 | 6.1 | 0.00 | 0.00 | 0.00 | 27 | 1010.1 |
| 20260504214052 | 67 | 3 | 1.7 | 6.1 | 0.00 | 0.00 | 0.00 | 28 | 1009.9 |
| 20260504213551 | 67 | 224 | 1.7 | 4.3 | 0.00 | 0.00 | 0.00 | 29 | 1010.0 |
| 20260504213100 | 67 | 305 | 1.7 | 6.1 | 0.00 | 0.00 | 0.00 | 23 | 1010.1 |
| 20260504212551 | 67 | 302 | 1.7 | 9.6 | 0.00 | 0.00 | 0.00 | 28 | 1010.2 |
| 20260504212050 | 67 | 287 | 0.9 | 9.6 | 0.00 | 0.00 | 0.00 | 31 | 1010.3 |
| 20260504211554 | 65 | 160 | 2.6 | 9.6 | 0.00 | 0.00 | 0.00 | 28 | 1010.3 |
| 20260504211054 | 66 | 214 | 1.7 | 6.1 | 0.00 | 0.00 | 0.00 | 26 | 1010.2 |
| 20260504210552 | 65 | 328 | 1.7 | 6.1 | 0.00 | 0.00 | 0.00 | 30 | 1010.2 |
| 20260504210056 | 64 | 0 | 1.7 | 7.0 | 0.00 | 0.00 | 0.00 | 34 | 1010.3 |
| 20260504205553 | 63 | 153 | 2.6 | 7.0 | 0.00 | 0.00 | 0.00 | 32 | 1010.5 |
| 20260504205054 | 64 | 210 | 0.9 | 5.2 | 0.00 | 0.00 | 0.00 | 31 | 1010.7 |
| 20260504204557 | 63 | 213 | 0.9 | 5.2 | 0.00 | 0.00 | 0.00 | 33 | 1010.8 |
| 20260504204052 | 63 | 305 | 0.9 | 5.2 | 0.00 | 0.00 | 0.00 | 34 | 1010.9 |
| 20260504203556 | 62 | 340 | 1.7 | 5.2 | 0.00 | 0.00 | 0.00 | 36 | 1011.0 |
| 20260504203053 | 62 | 94 | 0.9 | 5.2 | 0.00 | 0.00 | 0.00 | 36 | 1011.0 |
| 20260504202551 | 64 | 200 | 0.9 | 7.0 | 0.00 | 0.00 | 0.00 | 30 | 1011.0 |
| 20260504202051 | 64 | 95 | 1.7 | 9.6 | 0.00 | 0.00 | 0.00 | 34 | 1011.1 |
| 20260504201554 | 62 | 0 | 3.5 | 9.6 | 0.00 | 0.00 | 0.00 | 34 | 1011.1 |
| 20260504201053 | 60 | 54 | 0.9 | 6.1 | 0.00 | 0.00 | 0.00 | 41 | 1011.1 |
| 20260504200552 | 58 | 74 | 1.7 | 6.1 | 0.00 | 0.00 | 0.00 | 43 | 1011.1 |
| 20260504200057 | 57 | 0 | 1.7 | 9.6 | 0.00 | 0.00 | 0.00 | 40 | 1011.3 |
| 20260504195550 | 57 | 38 | 1.7 | 12.2 | 0.00 | 0.00 | 0.00 | 50 | 1011.5 |
| 20260504195050 | 58 | 334 | 5.2 | 12.2 | 0.00 | 0.00 | 0.00 | 39 | 1011.9 |
| 20260504194604 | 61 | 51 | 3.5 | 7.8 | 0.00 | 0.00 | 0.00 | 33 | 1011.4 |
| 20260504194051 | 63 | 348 | 1.7 | 8.7 | 0.00 | 0.00 | 0.00 | 31 | 1011.2 |
| 20260504193552 | 64 | 289 | 1.7 | 8.7 | 0.00 | 0.00 | 0.00 | 31 | 1010.9 |
| 20260504193058 | 68 | 353 | 1.7 | 13.9 | 0.00 | 0.00 | 0.00 | 27 | 1011.2 |
| 20260504192551 | 67 | 103 | 2.6 | 13.9 | 0.00 | 0.00 | 0.00 | 30 | 1010.8 |
| 20260504192054 | 66 | 209 | 2.6 | 8.7 | 0.00 | 0.00 | 0.00 | 29 | 1010.8 |
| 20260504191618 | 66 | 213 | 1.7 | 7.0 | 0.00 | 0.00 | 0.00 | 31 | 1010.8 |
| 20260504191051 | 67 | 221 | 1.7 | 6.1 | 0.00 | 0.00 | 0.00 | 26 | 1011.0 |
| 20260504190554 | 68 | 290 | 1.7 | 6.1 | 0.00 | 0.00 | 0.00 | 31 | 1011.0 |
| 20260504185555 | 65 | 261 | 0.9 | 3.5 | 0.00 | 0.00 | 0.00 | 31 | 1011.2 |
| 20260504185054 | 65 | 25 | 0.9 | 4.3 | 0.00 | 0.00 | 0.00 | 32 | 1011.2 |
| 20260504184606 | 63 | 246 | 0.9 | 4.3 | 0.00 | 0.00 | 0.00 | 33 | 1011.4 |
| 20260504184054 | 62 | 359 | 0.9 | 8.7 | 0.00 | 0.00 | 0.00 | 33 | 1011.4 |
| 20260504183552 | 64 | 277 | 1.7 | 8.7 | 0.00 | 0.00 | 0.00 | 30 | 1011.5 |
| 20260504183054 | 65 | 63 | 1.7 | 7.8 | 0.00 | 0.00 | 0.00 | 30 | 1011.6 |
| 20260504182557 | 66 | 0 | 2.6 | 7.8 | 0.00 | 0.00 | 0.00 | 29 | 1011.5 |
| 20260504182054 | 65 | 228 | 2.6 | 7.0 | 0.00 | 0.00 | 0.00 | 30 | 1011.5 |
| 20260504181604 | 65 | 186 | 1.7 | 5.2 | 0.00 | 0.00 | 0.00 | 29 | 1011.6 |
| 20260504181051 | 64 | 292 | 0.9 | 5.2 | 0.00 | 0.00 | 0.00 | 33 | 1011.8 |
| 20260504180554 | 61 | 155 | 0.9 | 2.6 | 0.00 | 0.00 | 0.00 | 34 | 1011.7 |
| 20260504180100 | 60 | 0 | 0.0 | 2.6 | 0.00 | 0.00 | 0.00 | 36 | 1011.7 |
| 20260504175554 | 60 | 0 | 0.0 | 4.3 | 0.00 | 0.00 | 0.00 | 34 | 1011.9 |
| 20260504175054 | 62 | 0 | 0.9 | 4.3 | 0.00 | 0.00 | 0.00 | 34 | 1011.8 |
| 20260504174556 | 62 | 248 | 0.9 | 4.3 | 0.00 | 0.00 | 0.00 | 34 | 1011.9 |
| 20260504174055 | 62 | 0 | 0.9 | 6.1 | 0.00 | 0.00 | 0.00 | 32 | 1011.9 |
| 20260504173556 | 61 | 143 | 2.6 | 6.1 | 0.00 | 0.00 | 0.00 | 33 | 1012.0 |
| 20260504173104 | 60 | 100 | 0.9 | 2.6 | 0.00 | 0.00 | 0.00 | 38 | 1012.0 |
| 20260504172551 | 59 | 293 | 0.9 | 2.6 | 0.00 | 0.00 | 0.00 | 35 | 1012.1 |
| 20260504172059 | 58 | 332 | 0.9 | 2.6 | 0.00 | 0.00 | 0.00 | 39 | 1012.1 |
| 20260504171604 | 58 | 278 | 0.0 | 3.5 | 0.00 | 0.00 | 0.00 | 38 | 1012.1 |
| 20260504171052 | 58 | 0 | 0.9 | 5.2 | 0.00 | 0.00 | 0.00 | 36 | 1012.1 |
| 20260504170554 | 58 | 130 | 0.0 | 6.1 | 0.00 | 0.00 | 0.00 | 40 | 1012.2 |
| 20260504151050 | 49 | 141 | 0.9 | 4.3 | 0.00 | 0.00 | 0.00 | 55 | 1013.0 |
| 20260504150553 | 50 | 106 | 1.7 | 4.3 | 0.00 | 0.00 | 0.00 | 57 | 1013.2 |
| 20260504141056 | 41 | 135 | 0.9 | 3.5 | 0.00 | 0.00 | 0.00 | 71 | 1013.5 |
| 20260504140552 | 39 | 118 | 0.9 | 3.5 | 0.00 | 0.00 | 0.00 | 76 | 1013.5 |
| 20260504140106 | 38 | 0 | 0.0 | 0.9 | 0.00 | 0.00 | 0.00 | 77 | 1013.6 |
| 20260504130553 | 29 | 0 | 0.0 | 0.0 | 0.00 | 0.00 | 0.00 | 85 | 1013.5 |